This is the latest recevied weather packets stored in our database for station/object KB4MLW-13. If no packets are shown the sender has not sent any weather packets the latest 10 day(s).
| Time | Temp. | Humidity | Pressure | Rain* | Wind** | Luminosity | Snow |
|---|---|---|---|---|---|---|---|
| 1788382378 | 35.56° C | 54% | 999.6 hPa | 0 mm | - | - | - |
| 1788382288 | 35.56° C | 58% | 999.9 hPa | 0 mm | - | - | - |
| 1788382200 | 35.56° C | 52% | 999.6 hPa | 0 mm | - | - | - |
| 1788382108 | 35° C | 53% | 999.7 hPa | 0 mm | - | - | - |
| 1788382018 | 35.56° C | 52% | 999.9 hPa | 0 mm | - | - | - |
| 1788381958 | 35.56° C | 53% | 999.7 hPa | 0 mm | - | - | - |
| 1788381869 | 35.56° C | 53% | 999.8 hPa | 0 mm | - | - | - |
| 1788381808 | 35.56° C | 53% | 999.7 hPa | 0 mm | - | - | - |
| 1788381748 | 35.56° C | 55% | 1000 hPa | 0 mm | - | - | - |
| 1788381688 | 35.56° C | 54% | 999.8 hPa | 0 mm | - | - | - |
| 1788381599 | 35° C | 57% | 999.6 hPa | 0 mm | - | - | - |
| 1788381509 | 35° C | 53% | 999.8 hPa | 0 mm | - | - | - |
| 1788381418 | 35° C | 54% | 1000 hPa | 0 mm | - | - | - |
| 1788381358 | 35° C | 56% | 999.8 hPa | 0 mm | - | - | - |
| 1788381269 | 35° C | 56% | 999.9 hPa | 0 mm | - | - | - |
| 1788381208 | 35.56° C | 55% | 999.9 hPa | 0 mm | - | - | - |
| 1788381148 | 36.11° C | 52% | 999.9 hPa | 0 mm | - | - | - |
| 1788381088 | 36.11° C | 53% | 1000 hPa | 0 mm | - | - | - |
| 1788381028 | 36.11° C | 55% | 1000 hPa | 0 mm | - | - | - |
| 1788380939 | 36.11° C | 52% | 999.9 hPa | 0 mm | - | - | - |
| 1788380878 | 36.11° C | 52% | 1000 hPa | 0 mm | - | - | - |
| 1788380818 | 36.11° C | 53% | 1000 hPa | 0 mm | - | - | - |
| 1788380758 | 36.11° C | 52% | 999.9 hPa | 0 mm | - | - | - |
| 1788380698 | 36.11° C | 53% | 999.7 hPa | 0 mm | - | - | - |
| 1788380638 | 36.11° C | 55% | 1000 hPa | 0 mm | - | - | - |
* Rain latest hour (hover to see other rain measurements)
** Current wind speed in m/s (hover to see current wind gust speed)